Hourly Data Report for September 13, 2017

All times are specified in Local Standard Time (LST). Add 1 hour to adjust for Daylight Saving Time where and when it is observed.

FISHER BRANCH (AUT)
MANITOBA

51°05'00.100" N
97°33'16.200" W
253.00 m
50309J6
71442
WSZ

Download Data

Hourly Data (September 2017)
Hourly Data Report for September 13, 2017
Temp Definition
°C
Dew Point Temp Definition
°C
Rel Hum Definition
%
Wind Dir Definition
10's deg

Wind Spd Definition
km/h
Visibility Definition
km
Stn Press Definition
kPa
Hmdx Definition


Wind Chill Definition


Weather Definition


TIME
00:00 14.8 11.1 79 34 10   97.77     LegendNANA
01:00 14.2 11.1 82 35 14   97.79     LegendNANA
02:00 13.0 10.7 86 35 12   97.82     LegendNANA
03:00 12.1 10.2 88 35 8   97.85     LegendNANA
04:00 10.8 9.4 91 35 6   97.93     LegendNANA
05:00 9.5 8.4 93 35 6   97.96     LegendNANA
06:00 9.6 8.1 91 35 8   98.01     LegendNANA
07:00 10.0 8.0 87 36 9   98.04     LegendNANA
08:00 11.8 8.7 81 35 7   98.05     LegendNANA
09:00 13.1 9.0 76 36 10   98.02     LegendNANA
10:00 15.3 9.3 68 1 8   98.01     LegendNANA
11:00 17.1 7.5 53 3 11   98.01     LegendNANA
12:00 18.0 6.8 48 3 14   97.98     LegendNANA
13:00 19.1 6.9 45 2 15   97.95     LegendNANA
14:00 19.6 6.8 43 3 15   97.97     LegendNANA
15:00 18.4 7.4 49 1 12   97.97     LegendNANA
16:00 17.5 8.4 55 1 11   97.98     LegendNANA
17:00 15.7 8.5 62 36 13   98.00     LegendNANA
18:00 14.7 8.8 68 35 12   98.02     LegendNANA
19:00 14.0 8.9 71 36 7   98.04     LegendNANA
20:00 12.8 8.9 77 36 7   98.02     LegendNANA
21:00 12.8 7.6 71 4 12   97.93     LegendNANA
22:00 12.5 7.4 71 4 11   97.95     LegendNANA
23:00 12.1 7.3 73 2 7   98.00     LegendNANA

Notes on Data Quality.

Legend

  • E = Estimated
  • M = Missing
  • NA = Not Available
  • ‡ = Partner data that is not subject to review by the National Climate Archives
Date modified: